User: anonymous   Login
Location: Katzenstein
(51.7484°N, 10.2155°E)
Time: 07:34:56
(UTC+00:00)
Language:

Cosmos 1805 Rocket - Orbit

View from above orbital plane
View from above orbital plane
View from above satellite
View from above satellite

Ground track
Ground track

The orbit data is extracted from the following two-line orbital elements,

1 17192U 86097B   20156.85531973 +.00000060 +00000-0 +42709-5 0  9998
2 17192 082.5050 319.3343 0018249 126.2384 349.3510 14.83606583788257
Epoch (UTC): 04 June 2020 20:31:39
Eccentricity: 0.0018249
inclination: 82.5050°
perigee height: 605 km
apogee height: 631 km
right ascension of ascending node: 319.3343°
argument of perigee: 126.2384°
revolutions per day: 14.83606583
mean anomaly at epoch: 349.3510°
orbit number at epoch: 78825

The dashed part of the orbit path shows where the satellite is in the earth's shadow,  

DLR